• In Czech Republic
  • List of Countries
  • For 7 days
  • Water Temperature
  • Satellite Maps
  • Weather Map
  • Weather Widgets
  • user-avatar
    Login

    Hourly Weather Aldaia

    Today, 28 May, Monday

    Time Temperature Precipitation Wind Pressure Humidity
    00:00 +20°C° 0.1 mm 3 mps 755 mmHg 80%
    01:00 +20°C° 0.1 mm 3 mps 755 mmHg 80%
    02:00 +20°C° 0.1 mm 3 mps 754 mmHg 80%
    03:00 +19°C° 0.1 mm 3 mps 754 mmHg 81%
    04:00 +19°C° 0.1 mm 3 mps 754 mmHg 81%
    05:00 +20°C° 0.1 mm 3 mps 754 mmHg 82%
    06:00 +20°C° 0.1 mm 3 mps 754 mmHg 83%
    07:00 +21°C° 0 mm 3 mps 755 mmHg 76%
    08:00 +22°C° 0 mm 3 mps 755 mmHg 70%
    09:00 +25°C° 0 mm 3 mps 755 mmHg 64%
    10:00 +26°C° 0.1 mm 4 mps 755 mmHg 59%
    11:00 +27°C° 0.1 mm 6 mps 755 mmHg 54%
    12:00 +28°C° 0.1 mm 7 mps 754 mmHg 49%
    13:00 +28°C° 0.1 mm 7 mps 754 mmHg 48%
    14:00 +28°C° 0.1 mm 6 mps 754 mmHg 48%
    15:00 +28°C° 0.1 mm 6 mps 754 mmHg 48%
    16:00 +27°C° 0.1 mm 6 mps 754 mmHg 49%
    17:00 +27°C° 0.1 mm 5 mps 754 mmHg 51%
    18:00 +27°C° 0.1 mm 4 mps 754 mmHg 52%
    19:00 +25°C° 0.2 mm 4 mps 755 mmHg 59%
    20:00 +23°C° 0.2 mm 4 mps 755 mmHg 65%
    21:00 +22°C° 0.2 mm 3 mps 756 mmHg 71%
    22:00 +22°C° 0.2 mm 3 mps 756 mmHg 74%
    23:00 +21°C° 0.2 mm 2 mps 756 mmHg 76%

    Tomorrow, 29 May, Tuesday

    Time Temperature Precipitation Wind Pressure Humidity
    00:00 +21°C° 0.2 mm 2 mps 756 mmHg 79%
    01:00 +20°C° 0 mm 2 mps 756 mmHg 80%
    02:00 +20°C° 0 mm 2 mps 756 mmHg 82%
    03:00 +20°C° 0 mm 1 mps 755 mmHg 83%
    04:00 +20°C° 0 mm 2 mps 755 mmHg 82%
    05:00 +20°C° 0 mm 2 mps 756 mmHg 81%
    06:00 +20°C° 0 mm 2 mps 756 mmHg 79%
    07:00 +23°C° 0.2 mm 2 mps 756 mmHg 73%
    08:00 +24°C° 0.2 mm 2 mps 756 mmHg 68%
    09:00 +25°C° 0.2 mm 2 mps 756 mmHg 62%
    10:00 +25°C° 0.9 mm 3 mps 755 mmHg 60%
    11:00 +26°C° 0.9 mm 3 mps 755 mmHg 59%
    12:00 +27°C° 0.9 mm 3 mps 755 mmHg 58%
    13:00 +27°C° 1.1 mm 3 mps 754 mmHg 58%
    14:00 +27°C° 1.1 mm 4 mps 754 mmHg 58%
    15:00 +27°C° 1.1 mm 4 mps 754 mmHg 59%
    16:00 +26°C° 1.3 mm 3 mps 754 mmHg 62%
    17:00 +25°C° 1.3 mm 3 mps 754 mmHg 65%
    18:00 +24°C° 1.3 mm 3 mps 753 mmHg 68%
    19:00 +24°C° 1.2 mm 2 mps 754 mmHg 72%
    20:00 +23°C° 1.2 mm 2 mps 754 mmHg 76%
    21:00 +21°C° 1.2 mm 2 mps 755 mmHg 80%
    22:00 +21°C° 0.6 mm 2 mps 755 mmHg 81%
    23:00 +21°C° 0.6 mm 2 mps 754 mmHg 81%

    Day after tomorrow, 30 May, Wednesday

    Time Temperature Precipitation Wind Pressure Humidity
    00:00 +22°C° 0.6 mm 1 mps 754 mmHg 81%
    01:00 +20°C° 0.2 mm 2 mps 754 mmHg 81%
    02:00 +20°C° 0.2 mm 2 mps 754 mmHg 81%
    03:00 +19°C° 0.2 mm 2 mps 754 mmHg 81%
    04:00 +19°C° 0 mm 2 mps 754 mmHg 80%
    05:00 +19°C° 0 mm 3 mps 754 mmHg 79%
    06:00 +19°C° 0 mm 3 mps 754 mmHg 78%
    07:00 +21°C° 0.1 mm 3 mps 754 mmHg 72%
    08:00 +22°C° 0.1 mm 3 mps 754 mmHg 66%
    09:00 +24°C° 0.1 mm 3 mps 754 mmHg 59%
    10:00 +25°C° 0.1 mm 4 mps 754 mmHg 55%
    11:00 +26°C° 0.1 mm 4 mps 754 mmHg 50%
    12:00 +27°C° 0.1 mm 4 mps 754 mmHg 46%
    13:00 +28°C° 0.1 mm 5 mps 754 mmHg 44%
    14:00 +28°C° 0.1 mm 5 mps 754 mmHg 43%
    15:00 +28°C° 0.1 mm 5 mps 753 mmHg 41%
    16:00 +27°C° 0 mm 5 mps 753 mmHg 43%
    17:00 +27°C° 0 mm 5 mps 753 mmHg 45%
    18:00 +26°C° 0 mm 4 mps 753 mmHg 47%
    19:00 +25°C° 0 mm 4 mps 754 mmHg 52%
    20:00 +23°C° 0 mm 4 mps 755 mmHg 57%
    21:00 +22°C° 0 mm 4 mps 755 mmHg 62%
    22:00 +22°C° 0 mm 4 mps 755 mmHg 64%
    23:00 +21°C° 0 mm 4 mps 755 mmHg 66%

    31 May, Thursday

    Time Temperature Precipitation Wind Pressure Humidity
    00:00 +21°C° 0 mm 4 mps 755 mmHg 68%
    01:00 +20°C° 0 mm 4 mps 755 mmHg 70%
    02:00 +20°C° 0 mm 4 mps 755 mmHg 72%
    03:00 +20°C° 0 mm 5 mps 755 mmHg 74%
    04:00 +20°C° 0 mm 4 mps 755 mmHg 74%
    05:00 +20°C° 0 mm 4 mps 755 mmHg 73%
    06:00 +20°C° 0 mm 4 mps 756 mmHg 73%
    07:00 +22°C° 0 mm 4 mps 756 mmHg 67%
    08:00 +24°C° 0 mm 3 mps 756 mmHg 60%
    09:00 +26°C° 0 mm 3 mps 756 mmHg 53%
    10:00 +27°C° 0 mm 3 mps 756 mmHg 49%
    11:00 +28°C° 0 mm 3 mps 756 mmHg 45%
    12:00 +29°C° 0 mm 3 mps 756 mmHg 41%
    13:00 +29°C° 0 mm 3 mps 756 mmHg 42%
    14:00 +29°C° 0 mm 3 mps 756 mmHg 43%
    15:00 +29°C° 0 mm 3 mps 756 mmHg 43%
    16:00 +28°C° 0.1 mm 3 mps 756 mmHg 46%
    17:00 +28°C° 0.1 mm 3 mps 756 mmHg 48%
    18:00 +28°C° 0.1 mm 3 mps 756 mmHg 51%
    19:00 +26°C° 0.1 mm 3 mps 756 mmHg 57%
    20:00 +25°C° 0.1 mm 2 mps 757 mmHg 63%
    21:00 +24°C° 0.1 mm 2 mps 757 mmHg 70%
    22:00 +23°C° 0 mm 2 mps 757 mmHg 71%
    23:00 +23°C° 0 mm 1 mps 757 mmHg 71%

    1 June, Friday

    Time Temperature Precipitation Wind Pressure Humidity
    00:00 +23°C° 0 mm 1 mps 757 mmHg 72%
    01:00 +22°C° 0 mm 1 mps 757 mmHg 72%
    02:00 +22°C° 0 mm 1 mps 757 mmHg 72%
    03:00 +22°C° 0 mm 1 mps 757 mmHg 72%
    04:00 +22°C° 0 mm 1 mps 757 mmHg 70%
    05:00 +23°C° 0 mm 1 mps 757 mmHg 67%
    06:00 +23°C° 0 mm 1 mps 757 mmHg 65%
    07:00 +25°C° 0 mm 2 mps 757 mmHg 59%
    08:00 +26°C° 0 mm 2 mps 757 mmHg 54%
    09:00 +27°C° 0 mm 2 mps 757 mmHg 48%
    10:00 +28°C° 0 mm 3 mps 757 mmHg 46%
    11:00 +29°C° 0 mm 3 mps 757 mmHg 43%
    12:00 +30°C° 0 mm 4 mps 757 mmHg 41%
    13:00 +30°C° 0.1 mm 4 mps 756 mmHg 42%
    14:00 +30°C° 0.1 mm 4 mps 756 mmHg 42%
    15:00 +30°C° 0.1 mm 4 mps 756 mmHg 43%
    16:00 +30°C° 0.1 mm 4 mps 756 mmHg 45%
    17:00 +29°C° 0.1 mm 4 mps 756 mmHg 48%
    18:00 +28°C° 0.1 mm 4 mps 756 mmHg 50%
    19:00 +27°C° 0 mm 3 mps 756 mmHg 56%
    20:00 +25°C° 0 mm 3 mps 756 mmHg 61%
    21:00 +24°C° 0 mm 2 mps 757 mmHg 67%
    22:00 +23°C° 0 mm 2 mps 757 mmHg 69%
    23:00 +23°C° 0 mm 2 mps 757 mmHg 70%

    2 June, Saturday

    Time Temperature Precipitation Wind Pressure Humidity
    00:00 +21°C° 0 mm 2 mps 757 mmHg 71%
    01:00 +22°C° 0 mm 1 mps 757 mmHg 73%
    02:00 +22°C° 0 mm 1 mps 757 mmHg 74%
    03:00 +21°C° 0 mm 1 mps 756 mmHg 75%
    04:00 +22°C° 0 mm 1 mps 756 mmHg 71%
    05:00 +22°C° 0 mm 1 mps 756 mmHg 68%
    06:00 +23°C° 0 mm 2 mps 756 mmHg 65%
    07:00 +25°C° 0 mm 2 mps 757 mmHg 56%
    08:00 +27°C° 0 mm 2 mps 757 mmHg 47%
    09:00 +29°C° 0 mm 3 mps 757 mmHg 38%
    10:00 +29°C° 0 mm 3 mps 757 mmHg 37%
    11:00 +30°C° 0 mm 4 mps 756 mmHg 36%
    12:00 +32°C° 0 mm 4 mps 756 mmHg 35%
    13:00 +30°C° 0 mm 4 mps 756 mmHg 37%
    14:00 +30°C° 0 mm 4 mps 756 mmHg 38%
    15:00 +29°C° 0 mm 4 mps 755 mmHg 40%
    16:00 +28°C° 0 mm 4 mps 756 mmHg 42%
    17:00 +28°C° 0 mm 3 mps 756 mmHg 44%
    18:00 +27°C° 0 mm 3 mps 756 mmHg 46%
    19:00 +26°C° 0 mm 2 mps 756 mmHg 50%
    20:00 +25°C° 0 mm 2 mps 756 mmHg 55%
    21:00 +24°C° 0 mm 1 mps 756 mmHg 59%
    22:00 +24°C° 0 mm 1 mps 756 mmHg 60%
    23:00 +23°C° 0 mm 1 mps 756 mmHg 61%
    Show more